Weather in Bremerhaven

Germany     53°32′16″N   8°35′22″E
temp.,
°C
wind,
m/s
gust,
m/s
humid.,
%
clouds,
%
prec.,
mm/h
press.,
hPa
HPBL,
m
22 october, fri
fri2223:00+8w9157011 1.1 1006837
02:00+8w91578100 1.6 10071158
05:00+8wsw111881100 0.8 10061276
08:00+9wsw121979100 1.3 10051447
11:00+9w131985100 1.6 10051543
14:00+9nw12187252 4.0 10081779
17:00+9wnw121662100 0.9 10111208
20:00+9wnw10146441 1.7 1014930
23 october, sat
sat2323:00+9wnw101468100 0.8 1017854
02:00+8wnw7127584 1.3 1019645
05:00+9wnw7127287 0.4 1020681
08:00+10wnw71171100 0.8 1021636
11:00+11wnw5870100 0.3 10241034
14:00+11w4666100 0.6 1025801
17:00+11w4672100 0.1 1026453
20:00+7sw3482100 0.1 1027120
24 october, sun
sun2423:00+6ssw348618 0.0 102874
02:00+5s4688100 0.0 1028111
05:00+5s4687100 0.0 1027126
08:00+4s4687100 0.0 1026131
11:00+8sse587198 0.0 1026276
14:00+11sse586138 0.0 1024540
17:00+10sse47695 0.0 1022294
20:00+6sse48822 0.0 1022151
25 october, mon
mon2523:00+5s59830 0.0 1020162
02:00+5s48840 0.0 1019145
05:00+4ssw48900 0.0 1018158
08:00+4ssw59944 0.0 1018179
11:00+8ssw51077100 0.0 1018313
14:00+12ssw6871100 0.0 1018546
17:00+11ssw6978100 0.0 1018460
20:00+8ssw511958 0.1 1019231
26 october, tue
tue2623:00+8ssw5119613 0.0 1019251
02:00+8ssw5129645 0.0 1019284
05:00+7ssw5109724 0.0 1019249
08:00+7ssw51198100 0.0 1019287
11:00+10ssw61292100 0.0 1019404
14:00+13sw81384100 0.0 1018810
17:00+13sw7138499 0.0 1018759
20:00+12sw71490100 0.0 1018624